Erie, CO

7:15 PM MST on December 09, 2019 (GMT -0700)
Erie Municipal Airport

Weather History for KEIK - November, 2019

Change the Weather History Date:

Saturday, November 16, 2019

  Actual Average (KBJC) Record (KBJC)
Temperature  
Mean Temperature 50 °F -  
Max Temperature 66 °F 50 °F 80 °F (2016)
Min Temperature 35 °F 30 °F 3 °F (2014)
Degree Days  
Heating Degree Days 14    
Moisture  
Dew Point 26 °F    
Average Humidity 47    
Maximum Humidity 80    
Minimum Humidity 16    
Precipitation  
Precipitation 0.00 in - - ()
Sea Level Pressure  
Sea Level Pressure 30.14 in    
Wind  
Wind Speed 5 mph (WSW)    
Max Wind Speed 21 mph    
Max Gust Speed 34 mph    
Visibility 10 miles    
Events      
Averages and records for this station are not official NWS values.
T = Trace of Precipitation, MM = Missing Value Source: NWS Daily Summary

Daily Weather History Graph

Daily Weather History Graph

Search for Another Location

Airport or City:

Astronomy

Nov. 16, 2019 Rise Set
Actual Time 6:46 AM MST 4:43 PM MST
Civil Twilight 6:17 AM MST 5:12 PM MST
Nautical Twilight 5:44 AM MST 5:45 PM MST
Astronomical Twilight 5:12 AM MST 6:17 PM MST
Moon 8:18 PM MST (11/16) 10:42 AM MST (11/16)
Length of Visible Light 10h 54m
Length of Day
9h 56m
Waning Gibbous, 82% of the Moon is Illuminated
Nov 16
Waning Gibbous
Nov 19
Last Quarter
Nov 26
New
Dec 3
First Quarter
Dec 11
Full

Hourly Weather History & Observations

Time (MST) Temp. Windchill Dew Point Humidity Pressure Visibility Wind Dir Wind Speed Gust Speed Precip Events Conditions
12:12 AM 40.5 °F 36.5 °F 31.3 °F 70% 30.10 in 10.0 mi South 5.8 mph - N/A   Clear
12:36 AM 39.6 °F - 30.6 °F 70% 30.10 in 10.0 mi Calm Calm - N/A   Clear
12:54 AM 37.2 °F 34.7 °F 30.2 °F 76% 30.09 in 10.0 mi SSW 3.5 mph - N/A   Clear
1:12 AM 36.3 °F - 30.2 °F 78% 30.10 in 10.0 mi Calm Calm - N/A   Clear
1:36 AM 35.6 °F - 30.0 °F 80% 30.09 in 10.0 mi Calm Calm - N/A   Clear
1:54 AM 39.9 °F - 29.1 °F 65% 30.09 in 10.0 mi Calm Calm - N/A   Clear
2:12 AM 39.9 °F - 28.9 °F 65% 30.09 in 10.0 mi Calm Calm - N/A   Clear
2:36 AM 42.8 °F 41.1 °F 27.0 °F 54% 30.08 in 10.0 mi West 3.5 mph - N/A   Clear
2:54 AM 54.9 °F - 21.2 °F 27% 30.07 in 10.0 mi WNW 6.9 mph - N/A   Clear
3:12 AM 54.1 °F - 20.5 °F 27% 30.07 in 10.0 mi Calm Calm - N/A   Clear
3:36 AM 50.9 °F - 20.7 °F 30% 30.07 in 10.0 mi South 3.5 mph - N/A   Clear
3:54 AM 46.0 °F - 23.4 °F 41% 30.07 in 10.0 mi Calm Calm - N/A   Clear
4:12 AM 46.9 °F - 22.1 °F 38% 30.07 in 10.0 mi Calm Calm - N/A   Clear
4:36 AM 43.3 °F 41.7 °F 25.0 °F 48% 30.07 in 10.0 mi SSW 3.5 mph - N/A   Clear
4:54 AM 44.8 °F - 23.4 °F 43% 30.07 in 10.0 mi Calm Calm - N/A   Clear
5:15 AM 43.7 °F 41.1 °F 23.7 °F 45% 30.07 in 10.0 mi SW 4.6 mph - N/A   Clear
5:33 AM 44.1 °F - 24.3 °F 46% 30.07 in 10.0 mi Calm Calm - N/A   Clear
5:51 AM 43.0 °F - 25.3 °F 50% 30.07 in 10.0 mi Calm Calm - N/A   Clear
6:12 AM 43.3 °F 41.7 °F 25.0 °F 48% 30.07 in 10.0 mi NNW 3.5 mph - N/A   Clear
6:53 AM 40.1 °F 35.3 °F 27.0 °F 59% 30.08 in 10.0 mi North 6.9 mph - N/A   Clear
7:11 AM 39.9 °F 37.8 °F 27.5 °F 61% 30.08 in 10.0 mi SE 3.5 mph - N/A   Clear
7:35 AM 40.3 °F 38.2 °F 27.9 °F 61% 30.09 in 10.0 mi SW 3.5 mph - N/A   Clear
7:53 AM 41.2 °F - 28.2 °F 60% 30.10 in 10.0 mi Calm Calm - N/A   Clear
8:17 AM 42.3 °F - 29.5 °F 61% 30.10 in 10.0 mi Calm Calm - N/A   Clear
8:35 AM 43.5 °F - 30.2 °F 59% 30.11 in 10.0 mi Calm Calm - N/A   Clear
8:53 AM 44.8 °F - 29.1 °F 54% 30.12 in 10.0 mi Calm Calm - N/A   Clear
9:12 AM 47.1 °F - 28.2 °F 48% 30.12 in 10.0 mi North 3.5 mph - N/A   Clear
9:36 AM 49.6 °F - 28.4 °F 44% 30.11 in 10.0 mi Calm Calm - N/A   Clear
9:54 AM 53.6 °F - 27.3 °F 36% 30.11 in 10.0 mi Calm Calm - N/A   Clear
10:12 AM 58.3 °F - 20.5 °F 23% 30.10 in 10.0 mi WSW 6.9 mph - N/A   Clear
10:36 AM 61.3 °F - 20.1 °F 20% 30.10 in 10.0 mi SW 5.8 mph - N/A   Clear
10:54 AM 61.3 °F - 18.7 °F 19% 30.09 in 10.0 mi SW 3.5 mph - N/A   Clear
11:17 AM 64.8 °F - 18.5 °F 17% 30.09 in 10.0 mi NW 8.1 mph 16.1 mph N/A   Clear
11:35 AM 64.8 °F - 20.8 °F 19% 30.09 in 10.0 mi NNW 6.9 mph 23.0 mph N/A   Clear
11:53 AM 64.4 °F - 18.1 °F 17% 30.07 in 10.0 mi NE 5.8 mph - N/A   Scattered Clouds
12:17 PM 61.9 °F - 17.8 °F 18% 30.06 in 10.0 mi West 4.6 mph - N/A   Scattered Clouds
12:35 PM 65.3 °F - 19.0 °F 17% 30.05 in 10.0 mi West 17.3 mph 24.2 mph N/A   Scattered Clouds
12:53 PM 66.6 °F - 18.3 °F 16% 30.05 in 10.0 mi West 12.7 mph 23.0 mph N/A   Mostly Cloudy
1:12 PM 65.3 °F - 18.5 °F 17% 30.05 in 10.0 mi West 13.8 mph 23.0 mph N/A   Overcast
1:36 PM 62.4 °F - 18.9 °F 19% 30.04 in 10.0 mi WNW 12.7 mph 17.3 mph N/A   Mostly Cloudy
1:54 PM 62.2 °F - 19.4 °F 19% 30.04 in 10.0 mi WNW 10.4 mph 16.1 mph N/A   Scattered Clouds
2:12 PM 65.5 °F - 18.0 °F 16% 30.04 in 10.0 mi West 13.8 mph 20.7 mph N/A   Scattered Clouds
2:36 PM 63.7 °F - 18.7 °F 18% 30.04 in 10.0 mi WNW 12.7 mph - N/A   Clear
2:54 PM 60.1 °F - 20.5 °F 22% 30.05 in 10.0 mi WNW 11.5 mph - N/A   Clear
3:17 PM 61.0 °F - 21.2 °F 22% 30.06 in 10.0 mi West 16.1 mph 21.9 mph N/A   Clear
3:35 PM 59.2 °F - 21.6 °F 23% 30.07 in 10.0 mi West 15.0 mph - N/A   Clear
3:53 PM 59.2 °F - 21.9 °F 24% 30.08 in 10.0 mi WNW 11.5 mph - N/A   Clear
4:12 PM 57.6 °F - 22.1 °F 25% 30.10 in 10.0 mi NNW 9.2 mph - N/A   Mostly Cloudy
4:36 PM 56.8 °F - 22.8 °F 27% 30.11 in 10.0 mi NNW 5.8 mph - N/A   Scattered Clouds
4:54 PM 54.9 °F - 25.9 °F 33% 30.13 in 10.0 mi WNW 10.4 mph - N/A   Clear
5:16 PM 45.5 °F 37.6 °F 29.1 °F 53% 30.17 in 10.0 mi NNE 20.7 mph 34.5 mph N/A   Clear
5:34 PM 42.6 °F 33.8 °F 29.3 °F 59% 30.20 in 10.0 mi NNE 20.7 mph 32.2 mph N/A   Clear
5:57 PM 41.4 °F 33.6 °F 30.2 °F 65% 30.23 in 10.0 mi NNE 15.0 mph 24.2 mph N/A   Scattered Clouds
6:12 PM 41.2 °F 33.4 °F 30.2 °F 65% 30.25 in 10.0 mi NNE 15.0 mph 20.7 mph N/A   Scattered Clouds
6:36 PM 40.5 °F 32.8 °F 29.3 °F 64% 30.28 in 10.0 mi NNE 13.8 mph 23.0 mph N/A   Scattered Clouds
6:54 PM 40.3 °F 34.4 °F 28.9 °F 64% 30.28 in 10.0 mi NE 9.2 mph 18.4 mph N/A   Scattered Clouds
7:12 PM 39.7 °F 33.2 °F 28.4 °F 64% 30.29 in 10.0 mi NE 10.4 mph - N/A   Scattered Clouds
7:53 PM 39.7 °F 35.6 °F 28.8 °F 65% 30.33 in 10.0 mi ESE 5.8 mph - N/A   Overcast
8:17 PM 39.7 °F 36.5 °F 28.9 °F 65% 30.32 in 10.0 mi SSE 4.6 mph - N/A   Overcast
8:35 PM 40.1 °F 38.0 °F 28.8 °F 64% 30.33 in 10.0 mi South 3.5 mph - N/A   Overcast
8:53 PM 40.3 °F 38.2 °F 29.5 °F 65% 30.33 in 10.0 mi SSE 3.5 mph - N/A   Overcast
9:12 PM 40.1 °F 34.1 °F 30.0 °F 67% 30.33 in 10.0 mi South 9.2 mph - N/A   Overcast
9:36 PM 39.4 °F 34.5 °F 30.0 °F 69% 30.33 in 10.0 mi South 6.9 mph - N/A   Mostly Cloudy
9:54 PM 39.2 °F 35.0 °F 30.0 °F 70% 30.33 in 10.0 mi South 5.8 mph - N/A   Mostly Cloudy
10:12 PM 38.8 °F 35.4 °F 30.0 °F 71% 30.33 in 10.0 mi South 4.6 mph - N/A   Mostly Cloudy
10:36 PM 38.8 °F 33.8 °F 30.0 °F 71% 30.32 in 10.0 mi South 6.9 mph - N/A   Overcast
10:54 PM 38.3 °F 33.9 °F 29.8 °F 72% 30.32 in 10.0 mi South 5.8 mph - N/A   Mostly Cloudy
11:12 PM 37.6 °F 33.1 °F 29.7 °F 73% 30.32 in 10.0 mi SSW 5.8 mph - N/A   Mostly Cloudy
11:35 PM 36.7 °F 32.9 °F 29.7 °F 76% 30.31 in 10.0 mi SSW 4.6 mph - N/A   Mostly Cloudy
11:52 PM 36.0 °F 31.1 °F 29.7 °F 78% 30.30 in 10.0 mi SSW 5.8 mph - N/A   Scattered Clouds